Date,TemperatureHighF,TemperatureAvgF,TemperatureLowF,DewpointHighF,DewpointAvgF,DewpointLowF,HumidityHigh,HumidityAvg,HumidityLow,PressureMaxIn,PressureMinIn,WindSpeedMaxMPH,WindSpeedAvgMPH,GustSpeedMaxMPH,PrecipitationSumIn
2013-1-1,48,35,25,19,16,12,70,48,25,30.33,30.20,2,0,7,0.00
2013-1-2,52,38,26,20,16,14,64,42,24,30.27,30.11,2,0,7,0.00
2013-1-3,53,38,27,18,12,4,62,37,14,30.32,30.18,3,0,7,0.00
2013-1-4,51,37,24,14,11,7,58,37,18,30.33,30.21,2,0,5,0.00
2013-1-7,61,54,45,15,13,10,30,20,14,30.01,29.96,5,1,10,0.00
2013-1-8,65,56,46,31,30,29,54,39,27,30.21,30.09,2,0,9,0.00
2013-1-9,60,48,35,34,30,28,76,53,32,30.22,29.84,4,0,9,0.00
2013-1-10,55,46,37,33,23,5,63,41,19,29.85,29.65,11,3,22,0.00
2013-1-11,45,38,28,19,10,6,47,32,24,30.02,29.85,5,2,14,0.00
2013-1-12,42,34,28,10,6,0,43,31,17,30.09,29.98,5,1,14,0.00
2013-1-13,38,30,19,9,5,0,58,36,22,30.17,30.05,4,1,11,0.00
2013-1-14,38,30,25,3,0,-3,38,28,18,30.39,30.17,6,3,15,0.00
2013-1-15,46,33,21,14,8,2,50,37,25,30.50,30.38,4,0,8,0.00
2013-1-16,56,39,25,23,19,13,65,45,26,30.48,30.30,3,0,7,0.00
2013-1-17,60,42,29,20,17,14,64,41,16,30.41,30.26,2,0,7,0.00
2013-1-18,60,43,28,19,16,14,61,36,17,30.35,30.20,3,0,5,0.00
2013-1-19,63,46,33,19,15,13,47,31,15,30.35,30.20,2,0,5,0.00
2013-1-20,64,46,31,19,14,12,47,30,14,30.27,30.13,2,0,5,0.00
2013-1-21,65,48,32,17,12,7,45,26,11,30.28,30.13,3,0,6,0.00
2013-1-22,65,48,31,19,16,12,50,30,15,30.24,30.13,3,0,7,0.00
2013-1-23,63,48,36,26,20,16,49,36,19,30.23,30.11,2,0,6,0.00
2013-1-24,56,52,48,46,37,26,79,58,41,30.21,30.09,2,0,4,0.01
2013-1-25,63,58,53,51,46,42,92,67,48,30.07,29.99,1,0,4,0.04
2013-1-26,57,52,48,52,50,47,97,91,80,29.99,29.80,2,0,6,0.39
2013-1-27,63,54,46,48,38,28,97,58,38,29.85,29.76,9,4,23,0.01
2013-1-28,50,46,40,29,19,13,51,35,23,30.02,29.83,7,2,18,0.00
2013-1-29,57,47,39,31,26,19,62,43,32,30.22,29.97,5,1,14,0.00
2013-1-30,61,48,35,33,30,27,75,52,31,30.32,30.18,3,0,6,0.00
2013-1-31,65,53,36,36,34,30,80,51,31,30.28,30.14,3,0,6,0.00
2013-2-1,65,50,36,36,34,31,83,57,30,30.25,30.14,2,0,6,0.00
2013-2-2,66,53,41,36,33,28,74,49,25,30.32,30.15,3,0,6,0.00
2013-2-3,68,57,46,39,35,29,66,45,29,30.15,29.98,3,1,8,0.00
2013-2-4,68,54,42,35,30,25,68,43,20,30.11,29.97,2,0,8,0.00
2013-2-5,67,53,37,32,29,26,69,43,23,30.02,29.81,3,0,9,0.00
2013-2-6,69,56,45,33,28,21,55,36,16,29.93,29.80,5,1,13,0.00
2013-2-7,65,57,48,27,24,22,40,29,23,29.83,29.73,6,1,15,0.00
2013-2-8,55,49,38,31,26,20,62,42,28,29.73,29.65,10,3,21,0.00
2013-2-9,54,45,36,30,24,20,70,44,29,29.92,29.69,6,1,14,0.00
2013-2-10,53,45,40,28,20,16,52,36,24,30.00,29.85,7,2,15,0.00
2013-2-11,52,44,35,27,14,7,54,31,18,30.20,30.00,5,2,13,0.00
2013-2-12,55,42,29,21,15,9,51,35,21,30.32,30.20,3,0,7,0.00
2013-2-13,62,48,32,27,23,18,61,40,24,30.27,30.11,4,0,9,0.00
2013-2-14,67,54,38,29,26,22,61,37,20,30.23,30.13,5,1,11,0.00
2013-2-15,66,56,44,25,23,20,44,29,17,30.32,30.27,1,0,7,0.00
2013-2-16,66,51,35,28,23,20,61,37,17,30.33,29.96,2,0,7,0.00
2013-2-17,72,54,35,25,18,6,60,29,9,29.96,29.75,7,1,12,0.00
2013-2-18,62,56,46,22,20,18,38,26,19,29.94,29.84,4,1,8,0.00
2013-2-19,61,54,49,29,27,23,44,36,24,29.54,29.49,11,5,22,0.00
2013-2-20,56,47,38,38,31,26,82,55,33,29.81,29.46,5,2,12,0.00
2013-2-21,55,43,33,33,22,10,88,49,17,29.98,29.81,3,0,9,0.00
2013-2-23,63,52,37,27,16,1,57,26,11,30.04,29.80,8,4,18,0.00
2013-2-24,57,51,44,12,8,3,26,17,12,30.15,30.04,9,4,21,0.00
2013-2-25,57,50,42,17,14,12,36,24,17,30.02,29.96,2,0,5,0.00
2013-2-26,59,51,31,20,12,7,54,23,13,30.18,30.05,4,2,11,0.00
2013-2-27,59,49,31,17,11,4,52,24,11,30.36,30.24,4,1,11,0.00
2013-2-28,65,49,31,19,13,10,49,26,12,30.40,30.28,3,0,7,0.00
2013-3-1,74,61,45,30,26,20,44,28,17,30.42,30.24,2,0,5,0.00
2013-3-2,74,64,43,34,31,29,59,31,19,30.30,29.99,3,1,9,0.00
2013-3-3,77,72,56,35,32,28,42,23,18,29.99,29.73,15,6,26,0.00
2013-3-4,71,64,52,33,29,23,45,28,20,30.06,29.94,2,0,8,0.00
2013-3-5,73,60,45,32,30,27,54,33,20,30.09,29.85,8,2,16,0.00
2013-3-6,70,61,51,37,31,27,53,33,21,29.91,29.77,12,5,22,0.00
2013-3-7,62,56,49,32,30,26,49,38,25,29.87,29.79,14,3,22,0.00
2013-3-8,52,47,44,46,42,39,91,83,67,29.79,29.62,9,1,22,0.27
2013-3-9,62,52,44,42,37,28,90,60,33,30.13,29.79,7,2,15,0.05
2013-3-10,68,58,47,31,24,20,50,28,17,30.28,30.13,7,2,13,0.00
2013-3-11,72,57,40,34,29,24,63,38,17,30.22,30.03,3,0,7,0.00
2013-3-12,77,61,44,36,32,30,63,38,19,30.16,30.04,3,0,8,0.00
2013-3-15,86,77,66,39,36,34,35,24,16,29.86,29.80,3,1,8,0.00
2013-3-16,86,72,56,39,26,16,47,21,8,29.85,29.68,4,1,13,0.00
2013-3-17,81,71,59,29,14,2,29,12,5,29.88,29.68,5,2,14,0.00
2013-4-7,81,78,76,32,28,24,20,16,12,29.63,29.60,9,5,21,0.00
2013-4-8,68,58,47,42,35,27,77,44,22,29.58,29.35,12,3,28,0.02
2013-4-9,70,61,51,24,22,18,29,22,14,30.07,29.75,8,4,20,0.02
2013-4-10,75,61,44,28,23,18,48,25,12,30.14,29.93,4,1,12,0.00
2013-4-11,76,60,49,31,26,23,47,29,14,29.95,29.82,4,1,7,0.00
2013-4-17,66,60,52,22,16,10,31,19,12,30.20,30.02,6,2,14,0.00
2013-4-18,68,56,43,24,14,7,37,20,9,30.30,30.18,4,1,12,0.00
2013-4-27,92,86,72,33,20,15,22,10,6,30.09,29.94,3,1,8,0.00
2013-4-28,97,90,72,30,20,14,20,8,5,29.93,29.75,5,1,11,0.00
2013-4-29,100,85,63,38,26,16,31,14,6,29.83,29.60,8,2,18,0.00
2013-4-30,95,85,67,40,32,21,30,15,9,29.70,29.57,8,2,18,0.00
2013-5-1,83,72,64,22,1,-17,11,6,2,30.30,29.70,9,4,22,0.00
2013-5-2,80,68,54,22,8,1,21,10,5,30.44,30.15,7,3,20,0.00
2013-5-3,87,71,51,28,15,2,37,14,4,30.16,29.77,4,1,10,0.00
2013-5-4,92,79,56,33,14,6,31,10,5,29.77,29.55,7,2,17,0.00
2013-5-6,78,71,61,44,38,34,41,31,22,29.88,29.78,8,3,19,0.00
2013-5-7,73,64,57,44,40,36,55,41,27,29.94,29.85,6,2,20,0.00
2013-5-8,77,66,56,44,41,38,59,42,25,30.04,29.94,5,1,16,0.00
2013-5-9,78,69,54,47,42,39,61,40,25,30.03,29.95,4,1,15,0.00
2013-5-10,89,74,58,48,40,-100,62,34,15,30.10,29.99,4,1,10,0.00
2013-5-11,94,80,60,43,36,-100,51,24,10,30.17,30.04,3,1,12,0.00
2013-5-12,98,84,63,43,33,26,39,18,8,30.15,29.96,4,1,10,0.00
2013-5-13,103,88,64,44,31,22,42,16,6,30.04,29.85,5,1,17,0.00
2013-5-14,101,87,66,43,34,25,41,18,7,29.90,29.78,9,2,23,0.00
2013-5-16,89,84,79,33,28,20,19,13,8,29.71,29.65,14,8,22,0.00
2013-5-17,86,77,70,41,34,-100,31,24,16,29.85,29.69,14,5,25,0.00
2013-5-18,90,77,60,45,36,20,46,25,9,29.93,29.80,4,1,11,0.00
2013-5-19,87,78,67,37,28,21,29,16,11,29.98,29.83,8,3,18,0.00
2013-5-20,86,75,65,37,27,20,33,18,9,30.09,29.91,6,1,15,0.00
2013-5-21,94,81,59,40,28,12,42,18,5,29.94,29.63,9,3,18,0.00
2013-5-22,93,82,73,36,25,0,22,14,3,29.64,29.52,12,7,29,0.00
2013-5-23,88,76,64,31,16,-11,25,12,2,29.79,29.58,9,4,25,0.00
2013-5-24,92,77,58,31,18,9,24,12,6,29.90,29.75,9,2,17,0.00
2013-5-25,92,80,65,32,22,9,28,13,5,29.86,29.77,10,4,20,0.00
2013-5-26,90,84,72,33,29,25,23,14,10,29.87,29.77,9,5,18,0.00
2013-5-27,94,80,62,37,32,26,37,19,9,29.87,29.67,7,2,16,0.00
2013-5-28,92,85,78,32,22,16,12,10,9,29.70,29.58,8,4,18,0.00
2013-5-29,93,80,66,40,35,26,32,21,13,29.80,29.60,4,1,15,0.00
2013-6-5,104,98,85,38,30,26,17,10,7,29.82,29.73,3,1,9,0.00
2013-6-6,107,92,72,44,34,25,32,15,6,29.86,29.70,4,1,11,0.00
2013-6-7,110,97,73,48,32,17,36,13,4,29.83,29.67,3,1,9,0.00
2013-6-8,111,94,74,44,33,25,33,14,5,29.77,29.66,4,1,11,0.00
2013-6-9,110,99,81,47,32,19,29,11,5,29.85,29.71,7,3,16,0.00
2013-6-10,102,90,78,47,30,13,30,13,5,29.82,29.67,11,4,29,0.00
2013-6-11,103,88,68,38,34,29,32,16,8,29.93,29.76,6,1,12,0.00
2013-6-12,105,95,82,42,32,23,24,11,6,29.88,29.75,9,3,19,0.00
2013-6-13,103,91,80,41,26,-4,24,12,2,29.86,29.72,8,4,19,0.00
2013-6-14,103,88,66,36,12,-19,23,8,1,29.88,29.70,7,2,15,0.00
2013-6-15,103,85,64,38,18,-18,34,12,1,29.84,29.75,7,2,19,0.00
2013-6-16,100,86,65,37,20,7,29,11,4,29.94,29.81,6,2,18,0.00
2013-6-17,104,91,65,39,19,3,35,9,3,29.92,29.75,7,1,14,0.00
2013-6-18,103,91,77,33,23,7,20,9,3,29.80,29.63,10,4,25,0.00
2013-6-19,97,87,76,38,27,13,23,13,6,29.75,29.63,9,3,20,0.00
2013-6-20,98,82,66,27,17,9,22,9,5,29.79,29.68,7,1,14,0.00
2013-6-21,100,98,95,21,17,12,6,5,4,29.76,29.67,9,6,16,0.00
2013-6-22,100,93,71,31,25,19,20,9,6,29.85,29.68,6,2,11,0.00
2013-6-23,102,92,71,37,31,25,27,12,7,29.75,29.58,9,4,24,0.00
2013-6-24,91,83,75,46,40,34,28,22,15,29.77,29.62,11,5,22,0.00
2013-6-25,100,88,74,51,47,43,43,26,16,29.90,29.77,8,3,16,0.00
2013-6-27,109,99,78,51,48,44,39,19,12,30.05,29.90,3,1,11,0.00
2013-6-28,115,106,81,51,43,35,33,13,7,29.98,29.79,4,1,9,0.00
2013-6-29,116,107,85,52,40,34,28,11,7,29.88,29.70,4,0,10,0.00
2013-6-30,117,109,97,45,40,35,17,10,7,29.83,29.66,4,1,10,0.00
2013-7-1,113,104,90,57,48,42,30,16,10,29.86,29.73,4,2,12,0.00
2013-7-2,115,105,91,53,46,42,26,14,9,29.89,29.71,8,2,16,0.00
2013-7-3,112,104,88,56,47,41,30,15,10,29.83,29.64,4,1,11,0.00
2013-7-4,113,103,89,55,47,43,26,16,10,29.75,29.59,6,2,15,0.00
2013-7-5,109,99,84,60,52,41,42,22,12,29.75,29.61,10,2,20,0.00
2013-7-6,105,94,84,57,51,46,38,24,15,29.81,29.66,5,1,12,0.00
2013-7-7,105,98,84,63,50,38,42,20,12,29.83,29.68,9,1,16,0.01
2013-7-8,108,98,78,53,34,20,36,13,5,29.92,29.80,8,2,18,0.01
2013-7-9,110,102,82,42,30,23,24,9,6,30.00,29.85,9,3,17,0.00
2013-7-10,106,95,88,60,50,-100,35,25,14,29.94,29.77,4,1,10,0.00
2013-7-11,93,85,79,66,63,51,61,48,29,29.92,29.85,8,2,15,0.00
2013-7-12,95,84,77,65,62,58,64,49,32,29.95,29.83,5,1,15,0.00
2013-7-13,84,79,75,63,62,61,64,56,47,29.95,29.88,0,0,2,0.00
2013-7-14,105,100,89,59,54,50,37,23,17,29.86,29.77,4,1,11,0.00
2013-7-15,109,98,82,61,52,44,50,24,13,29.84,29.67,6,2,14,0.00
2013-7-16,107,94,83,50,42,36,24,17,11,29.90,29.75,6,2,15,0.00
2013-7-17,106,96,81,52,42,24,25,16,8,30.02,29.86,6,1,15,0.00
2013-7-18,109,100,90,56,41,26,27,14,9,29.97,29.78,4,1,10,0.00
2013-7-19,109,95,83,60,54,46,44,27,13,29.90,29.72,3,1,8,0.00
2013-7-22,96,94,90,65,62,60,44,35,32,29.93,29.85,3,2,9,0.00
2013-7-23,99,93,85,63,60,59,47,34,30,29.83,29.69,4,1,12,0.00
2013-7-24,105,95,77,67,58,51,68,32,18,29.76,29.58,4,0,10,0.00
2013-7-25,110,100,81,59,54,49,47,23,14,29.74,29.61,6,1,15,0.00
2013-7-26,105,92,82,63,59,54,49,33,20,29.83,29.72,6,1,20,0.00
2013-7-27,90,84,77,64,62,59,61,48,38,29.88,29.68,6,1,15,0.00
2013-7-28,96,86,77,63,58,51,54,40,23,29.72,29.61,9,2,23,0.00
2013-7-29,102,85,69,59,53,37,69,37,14,29.80,29.70,5,1,18,0.00
2013-7-30,104,95,78,50,44,41,35,18,13,29.91,29.77,6,1,20,0.00
2013-7-31,106,98,82,55,47,40,39,19,11,29.88,29.67,8,2,17,0.00
2013-8-1,105,97,85,37,24,16,10,7,5,29.62,29.57,11,4,23,0.00
2013-8-2,103,91,76,39,30,21,22,12,6,29.73,29.61,6,1,16,0.00
2013-8-3,105,96,69,44,35,27,36,13,8,29.79,29.66,7,2,16,0.00
2013-8-4,106,98,73,46,38,29,34,13,9,29.78,29.63,5,2,13,0.00
2013-8-5,105,96,82,39,26,17,22,9,5,29.78,29.62,6,2,16,0.00
2013-8-6,104,94,82,42,26,16,22,10,5,29.77,29.65,6,2,14,0.00
2013-8-7,100,91,80,36,23,6,19,10,3,29.79,29.67,8,2,21,0.00